Regional Weather Roundup
Issued by NWS

Home | Current Version | Previous Version | Graphics & Text | Print | Product List | Glossary On
Versions: 1 2 3 4 5 6 7 8 9 10 11 12 13 14 15 16 17 18 19 20 21 22 23 24 25 26 27 28 29 30 31 32 33 34 35 36 37 38 39 40 41 42 43 44 45 46 47 48 49 50
000
ASUS43 KTOP 301359
RWRKS

WEATHER ROUNDUP FOR KANSAS
NATIONAL WEATHER SERVICE GOODLAND KS
900 AM CDT TUE SEP 30 2014

NOTE:  "FAIR" INDICATES FEW OR NO CLOUDS BELOW 12,000 FEET WITH NO
SIGNIFICANT WEATHER AND/OR OBSTRUCTIONS TO VISIBILITY.

KSZ001>006-013>018-027>032-041>047-301500-
NORTHWEST KANSAS

CITY           SKY/WX    TMP DP  RH WIND       PRES   REMARKS
GOODLAND       SUNNY     52  47  83 CALM      29.86F
HAYS           CLOUDY    63  57  82 SE5       29.84S
HILL CITY      PTSUNNY   58  56  93 CALM      29.84S
RUSSELL        CLOUDY    63  61  93 S3        29.83F
$$

KSZ061>065-074>080-084>089-301500-
SOUTHWEST KANSAS

CITY           SKY/WX    TMP DP  RH WIND       PRES   REMARKS
DODGE CITY     PTSUNNY   64  55  72 S16G23    29.84S
GARDEN CITY    CLOUDY    62  58  86 S3        29.84S
GREAT BEND     CLOUDY    64  57  77 S20G26    29.83F
LIBERAL        SUNNY     64  55  72 SW9       29.85S
$$

KSZ066>073-081>083-090>101-301500-
SOUTHEAST KANSAS

CITY           SKY/WX    TMP DP  RH WIND       PRES   REMARKS
CHANUTE        SUNNY     66  63  90 SE6       29.94S
COFFEYVILLE    SUNNY     65  61  87 SE3       29.93F
HUTCHINSON     CLOUDY    70  59  68 S13       29.87S
MEDICINE LODGE   N/A     67  60  78 S7        29.87S
NEWTON         MOSUNNY   66  55  68 S14       29.91S
PARSONS        SUNNY     68  63  84 S6        29.95S
WICHITA INTL   PTSUNNY   68  59  73 S12       29.88F
WICHITA JABRA  SUNNY     67  59  75 S14       29.89F
WINFIELD       SUNNY     68  60  75 S10       29.92S
$$

KSZ007>012-019>026-033>040-048>060-102>105-301500-
NORTHEAST KANSAS

CITY           SKY/WX    TMP DP  RH WIND       PRES   REMARKS
CONCORDIA      LGT RAIN  63  61  93 SW6       29.88R
EMPORIA        MOSUNNY   66  61  84 S9        29.91S
LAWRENCE       MOSUNNY   65  60  84 SE3       29.93R
MANHATTAN      MOSUNNY   73  60  63 S8        29.87S
OLATHE IND     MOSUNNY   66  60  81 S10       29.94R
OLATHE EXE     MOSUNNY   65  60  84 S6        29.92F
SALINA         CLOUDY    69  59  70 S13       29.87R
TOPEKA BILLARD SUNNY     68  61  78 CALM      29.91S
TOPEKA FORBES  SUNNY     66  60  81 S5        29.91S
$$


USA.gov is the U.S. government's official web portal to all federal, state and local government web resources and services.